START_TIME,STEP,MOV.,AL01,t_acc.,AL02,t_acc.,E37,t_acc.,H21,t_acc.
1979-08-02 09:00:33.130 ,0,0,0.,24.0,0.,24.0,1.,24.0,0.,24.0
1979-08-02 09:00:57.130 ,0,1,0.,24.0,0.,24.0,3.,24.0,0.,24.0
1979-08-02 09:01:21.130 ,0,0,0.,24.0,0.,24.0,0.,24.0,0.,24.0
1979-08-02 09:01:45.130 ,1,1,0.,24.0,0.,24.0,1.,24.0,0.,24.0
1979-08-02 09:02:09.130 ,1,0,0.,24.0,0.,24.0,0.,24.0,0.,24.0
1979-08-02 09:02:33.130 ,2,1,0.,24.0,0.,24.0,0.,24.0,0.,24.0
1979-08-02 09:02:57.130 ,2,0,0.,24.0,0.,24.0,1.,24.0,0.,24.0
1979-08-02 09:03:21.130 ,3,1,0.,24.0,0.,24.0,1.,24.0,0.,24.0
1979-08-02 09:03:45.130 ,3,0,0.,24.0,0.,24.0,0.,24.0,0.,24.0
1979-08-02 09:04:09.130 ,4,1,0.,24.0,0.,24.0,0.,24.0,0.,24.0
1979-08-02 09:04:33.130 ,0,0,0.,24.0,0.,24.0,0.,24.0,0.,24.0
1979-08-02 09:04:57.130 ,5,1,0.,24.0,0.,24.0,0.,24.0,0.,24.0
1979-08-02 09:05:21.130 ,5,0,0.,24.0,0.,24.0,2.,24.0,0.,24.0
1979-08-02 09:05:45.130 ,6,1,0.,24.0,0.,24.0,1.,24.0,0.,24.0
1979-08-02 09:06:09.130 ,6,0,0.,24.0,0.,24.0,0.,24.0,0.,24.0
1979-08-02 09:06:33.130 ,7,0,,0,,0,,0,,0
1979-08-02 09:06:57.130 ,7,0,29.,24.0,0.,24.0,0.,24.0,0.,24.0
1979-08-02 09:07:21.130 ,5,1,8.,24.0,0.,24.0,0.,24.0,0.,24.0
1979-08-02 09:07:45.130 ,1,1,0.,24.0,0.,24.0,2.,24.0,0.,24.0
1979-08-02 09:08:09.130 ,2,1,0.,24.0,0.,24.0,0.,24.0,0.,24.0
1979-08-02 09:08:33.130 ,6,1,0.,24.0,0.,24.0,0.,24.0,0.,24.0
1979-08-02 09:08:57.130 ,5,1,13.,24.0,0.,24.0,1.,24.0,0.,24.0
1979-08-02 09:09:21.130 ,1,1,0.,24.0,1.,24.0,1.,24.0,0.,24.0
1979-08-02 09:09:45.130 ,2,1,0.,24.0,0.,24.0,2.,24.0,0.,24.0
1979-08-02 09:10:09.130 ,6,1,0.,24.0,0.,24.0,0.,24.0,0.,24.0
1979-08-02 09:10:33.130 ,5,1,14.,24.0,0.,24.0,0.,24.0,0.,24.0
1979-08-02 09:10:57.130 ,1,1,1.,24.0,0.,24.0,0.,24.0,0.,24.0
1979-08-02 09:11:21.130 ,2,1,0.,24.0,0.,24.0,0.,24.0,0.,24.0
1979-08-02 09:11:45.130 ,6,1,0.,24.0,0.,24.0,0.,24.0,0.,24.0
1979-08-02 09:12:09.130 ,5,1,15.,24.0,0.,24.0,1.,24.0,0.,24.0
1979-08-02 09:12:33.130 ,1,1,0.,24.0,0.,24.0,1.,24.0,0.,24.0
1979-08-02 09:12:57.130 ,2,1,0.,24.0,0.,24.0,0.,24.0,0.,24.0
1979-08-02 09:13:21.130 ,6,1,0.,24.0,0.,24.0,0.,24.0,0.,24.0
1979-08-02 09:13:45.130 ,5,1,14.,24.0,0.,24.0,0.,24.0,0.,24.0
1979-08-02 09:14:09.130 ,1,1,0.,24.0,0.,24.0,1.,24.0,0.,24.0
1979-08-02 09:14:33.130 ,2,1,0.,24.0,0.,24.0,0.,24.0,0.,24.0
1979-08-02 09:14:57.130 ,6,1,0.,24.0,0.,24.0,0.,24.0,0.,24.0
1979-08-02 09:15:21.130 ,5,1,15.,24.0,0.,24.0,0.,24.0,0.,24.0
1979-08-02 09:15:45.130 ,1,1,0.,24.0,0.,24.0,1.,24.0,0.,24.0
1979-08-02 09:16:09.130 ,2,1,1.,24.0,0.,24.0,1.,24.0,0.,24.0
1979-08-02 09:16:33.130 ,6,1,0.,24.0,0.,24.0,1.,24.0,0.,24.0
1979-08-02 09:16:57.130 ,5,1,14.,24.0,0.,24.0,1.,24.0,0.,24.0
1979-08-02 09:17:21.130 ,1,1,0.,24.0,0.,24.0,1.,24.0,0.,24.0
1979-08-02 09:17:45.120 ,0,0,0.,24.0,1.,24.0,0.,24.0,0.,24.0
1979-08-02 09:18:09.120 ,0,0,0.,24.0,0.,24.0,1.,24.0,0.,24.0
1979-08-02 09:18:33.120 ,5,1,20.,24.0,0.,24.0,0.,24.0,0.,24.0
1979-08-02 09:18:57.120 ,5,0,0.,24.0,0.,24.0,0.,24.0,0.,24.0
1979-08-02 09:19:21.120 ,4,1,0.,24.0,0.,24.0,3.,24.0,0.,24.0
1979-08-02 09:19:45.120 ,4,0,0.,24.0,0.,24.0,0.,24.0,0.,24.0
1979-08-02 09:20:09.120 ,3,1,0.,24.0,0.,24.0,0.,24.0,0.,24.0
1979-08-02 09:20:33.120 ,3,0,0.,24.0,0.,24.0,1.,24.0,0.,24.0
1979-08-02 09:20:57.120 ,2,1,0.,24.0,0.,24.0,2.,24.0,0.,24.0
1979-08-02 09:21:21.120 ,2,0,1.,24.0,0.,24.0,0.,24.0,0.,24.0
1979-08-02 09:21:45.120 ,1,1,0.,24.0,0.,24.0,1.,24.0,0.,24.0
1979-08-02 09:22:09.120 ,1,0,0.,24.0,0.,24.0,0.,24.0,0.,24.0
1979-08-02 09:22:33.120 ,0,1,0.,24.0,0.,24.0,0.,24.0,0.,24.0
1979-08-02 09:22:57.120 ,0,0,0.,24.0,1.,24.0,1.,24.0,0.,24.0
1979-08-02 09:23:21.120 ,0,1,0.,24.0,0.,24.0,1.,24.0,0.,24.0
1979-08-02 09:23:45.120 ,0,0,0.,24.0,0.,24.0,0.,24.0,0.,24.0
1979-08-02 09:24:09.120 ,1,1,0.,24.0,0.,24.0,1.,24.0,0.,24.0
1979-08-02 09:24:33.120 ,1,0,1.,24.0,0.,24.0,0.,24.0,0.,24.0
1979-08-02 09:24:57.120 ,2,1,0.,24.0,1.,24.0,0.,24.0,0.,24.0
1979-08-02 09:25:21.120 ,2,0,0.,24.0,0.,24.0,0.,24.0,0.,24.0
1979-08-02 09:25:45.120 ,3,1,0.,24.0,0.,24.0,0.,24.0,0.,24.0
1979-08-02 09:26:09.120 ,3,0,0.,24.0,0.,24.0,1.,24.0,0.,24.0
1979-08-02 09:26:33.120 ,4,1,0.,24.0,0.,24.0,3.,24.0,0.,24.0
1979-08-02 09:26:57.120 ,4,0,0.,24.0,0.,24.0,2.,24.0,0.,24.0
1979-08-02 09:27:21.120 ,5,1,1.,24.0,0.,24.0,0.,24.0,0.,24.0
1979-08-02 09:27:45.120 ,5,0,0.,24.0,0.,24.0,0.,24.0,0.,24.0
1979-08-02 09:28:09.120 ,6,1,0.,24.0,0.,24.0,0.,24.0,0.,24.0
1979-08-02 09:28:33.120 ,6,0,0.,24.0,0.,24.0,0.,24.0,0.,24.0
1979-08-02 09:28:57.120 ,7,1,7.,24.0,0.,24.0,2.,24.0,0.,24.0
1979-08-02 09:29:21.120 ,7,0,24.,24.0,0.,24.0,1.,24.0,0.,24.0
1979-08-02 09:29:45.120 ,7,1,38.,24.0,0.,24.0,0.,24.0,0.,24.0
1979-08-02 09:30:09.120 ,7,0,29.,24.0,0.,24.0,2.,24.0,0.,24.0
1979-08-02 09:30:33.120 ,6,1,24.,24.0,0.,24.0,1.,24.0,0.,24.0
1979-08-02 09:30:57.120 ,6,0,0.,24.0,0.,24.0,0.,24.0,0.,24.0
1979-08-02 09:31:21.120 ,0,0,0.,24.0,0.,24.0,0.,24.0,0.,24.0
1979-08-02 09:31:45.120 ,0,0,0.,24.0,0.,24.0,0.,24.0,0.,24.0
1979-08-02 09:32:09.120 ,4,1,0.,24.0,0.,24.0,1.,24.0,0.,24.0
1979-08-02 09:32:33.120 ,4,0,0.,24.0,0.,24.0,5.,24.0,0.,24.0
1979-08-02 09:32:57.120 ,3,1,0.,24.0,0.,24.0,0.,24.0,0.,24.0
1979-08-02 09:33:21.120 ,3,0,0.,24.0,0.,24.0,1.,24.0,0.,24.0
1979-08-02 09:33:45.120 ,2,1,0.,24.0,0.,24.0,0.,24.0,0.,24.0
1979-08-02 09:34:09.120 ,2,0,0.,24.0,0.,24.0,1.,24.0,0.,24.0
1979-08-02 09:34:33.120 ,1,1,0.,24.0,0.,24.0,2.,24.0,0.,24.0
1979-08-02 09:34:57.120 ,1,0,0.,24.0,0.,24.0,1.,24.0,0.,24.0
1979-08-02 09:35:21.120 ,0,1,0.,24.0,0.,24.0,0.,24.0,0.,24.0
1979-08-02 09:35:45.120 ,0,0,0.,24.0,0.,24.0,0.,24.0,0.,24.0
1979-08-02 09:36:09.120 ,0,1,0.,24.0,0.,24.0,1.,24.0,0.,24.0
1979-08-02 09:36:33.120 ,0,0,0.,24.0,0.,24.0,0.,24.0,0.,24.0
1979-08-02 09:36:57.120 ,1,1,0.,24.0,0.,24.0,0.,24.0,0.,24.0
1979-08-02 09:37:21.120 ,1,0,0.,24.0,0.,24.0,0.,24.0,0.,24.0
1979-08-02 09:37:45.120 ,2,1,0.,24.0,0.,24.0,0.,24.0,0.,24.0
1979-08-02 09:38:09.120 ,2,0,0.,24.0,0.,24.0,0.,24.0,0.,24.0
1979-08-02 09:38:33.120 ,3,1,0.,24.0,0.,24.0,0.,24.0,0.,24.0
1979-08-02 09:38:57.120 ,3,0,0.,24.0,0.,24.0,0.,24.0,0.,24.0
1979-08-02 09:39:21.120 ,4,1,0.,24.0,0.,24.0,0.,24.0,0.,24.0
1979-08-02 09:39:45.120 ,4,0,0.,24.0,0.,24.0,4.,24.0,0.,24.0
1979-08-02 09:40:09.120 ,5,1,0.,24.0,0.,24.0,1.,24.0,0.,24.0
1979-08-02 09:40:33.120 ,5,0,0.,24.0,0.,24.0,0.,24.0,0.,24.0
1979-08-02 09:40:57.120 ,6,1,0.,24.0,0.,24.0,0.,24.0,0.,24.0
1979-08-02 09:41:21.120 ,6,0,0.,24.0,0.,24.0,1.,24.0,0.,24.0
1979-08-02 09:41:45.120 ,7,1,7.,24.0,0.,24.0,0.,24.0,0.,24.0
1979-08-02 09:42:09.120 ,7,0,27.,24.0,0.,24.0,0.,24.0,0.,24.0
1979-08-02 09:42:33.120 ,7,1,25.,24.0,0.,24.0,0.,24.0,0.,24.0
1979-08-02 09:42:57.120 ,7,0,35.,24.0,0.,24.0,0.,24.0,0.,24.0
1979-08-02 09:43:21.120 ,6,1,26.,24.0,0.,24.0,0.,24.0,0.,24.0
1979-08-02 09:43:45.120 ,6,0,0.,24.0,0.,24.0,2.,24.0,0.,24.0
1979-08-02 09:44:09.120 ,5,1,0.,24.0,0.,24.0,0.,24.0,0.,24.0
1979-08-02 09:44:33.120 ,5,0,0.,24.0,0.,24.0,0.,24.0,0.,24.0
1979-08-02 09:44:57.120 ,4,1,0.,24.0,0.,24.0,0.,24.0,0.,24.0
1979-08-02 09:45:21.120 ,4,0,0.,24.0,0.,24.0,1.,24.0,0.,24.0
1979-08-02 09:45:45.120 ,3,1,0.,24.0,0.,24.0,0.,24.0,0.,24.0
1979-08-02 09:46:09.120 ,3,0,1.,24.0,0.,24.0,0.,24.0,0.,24.0
1979-08-02 09:46:33.120 ,2,1,0.,24.0,0.,24.0,0.,24.0,0.,24.0
1979-08-02 09:46:57.120 ,2,0,0.,24.0,0.,24.0,0.,24.0,0.,24.0
1979-08-02 09:47:21.120 ,1,1,0.,24.0,0.,24.0,1.,24.0,0.,24.0
1979-08-02 09:47:45.120 ,1,0,0.,24.0,0.,24.0,0.,24.0,0.,24.0
1979-08-02 09:48:09.120 ,0,1,0.,24.0,0.,24.0,0.,24.0,0.,24.0
1979-08-02 09:48:33.120 ,0,0,0.,24.0,0.,24.0,0.,24.0,0.,24.0
1979-08-02 09:48:57.120 ,0,1,0.,24.0,0.,24.0,1.,24.0,0.,24.0
1979-08-02 09:49:21.120 ,0,0,0.,24.0,0.,24.0,1.,24.0,0.,24.0
1979-08-02 09:49:45.120 ,1,1,0.,24.0,0.,24.0,0.,24.0,0.,24.0
1979-08-02 09:50:09.120 ,1,0,0.,24.0,0.,24.0,1.,24.0,0.,24.0
1979-08-02 09:50:33.120 ,2,1,0.,24.0,0.,24.0,0.,24.0,0.,24.0
1979-08-02 09:50:57.120 ,2,0,0.,24.0,0.,24.0,1.,24.0,0.,24.0
1979-08-02 09:51:21.120 ,3,1,0.,24.0,0.,24.0,1.,24.0,0.,24.0
1979-08-02 09:51:45.120 ,3,0,0.,24.0,0.,24.0,0.,24.0,0.,24.0
1979-08-02 09:52:09.120 ,4,1,0.,24.0,0.,24.0,1.,24.0,0.,24.0
1979-08-02 09:52:33.120 ,4,0,0.,24.0,0.,24.0,0.,24.0,0.,24.0
1979-08-02 09:52:57.120 ,5,1,0.,24.0,0.,24.0,0.,24.0,0.,24.0
1979-08-02 09:53:21.120 ,5,0,0.,24.0,0.,24.0,0.,24.0,0.,24.0
1979-08-02 09:53:45.120 ,6,1,1.,24.0,0.,24.0,1.,24.0,0.,24.0
1979-08-02 09:54:09.120 ,6,0,0.,24.0,0.,24.0,0.,24.0,0.,24.0
1979-08-02 09:54:33.120 ,7,0,8.,24.0,0.,24.0,1.,24.0,0.,24.0
1979-08-02 09:54:57.120 ,7,0,31.,24.0,0.,24.0,3.,24.0,0.,24.0
1979-08-02 09:55:21.120 ,5,1,15.,24.0,0.,24.0,1.,24.0,0.,24.0
1979-08-02 09:55:45.120 ,1,1,0.,24.0,0.,24.0,0.,24.0,0.,24.0
1979-08-02 09:56:09.120 ,2,1,0.,24.0,1.,24.0,0.,24.0,0.,24.0
1979-08-02 09:56:33.120 ,6,1,0.,24.0,0.,24.0,0.,24.0,0.,24.0
1979-08-02 09:56:57.120 ,5,1,24.,24.0,0.,24.0,0.,24.0,0.,24.0
1979-08-02 09:57:21.120 ,1,1,0.,24.0,0.,24.0,1.,24.0,0.,24.0
1979-08-02 09:57:45.120 ,2,1,1.,24.0,0.,24.0,0.,24.0,0.,24.0
1979-08-02 09:58:09.120 ,6,1,0.,24.0,0.,24.0,1.,24.0,0.,24.0
1979-08-02 09:58:33.120 ,5,1,17.,24.0,0.,24.0,1.,24.0,0.,24.0
1979-08-02 09:58:57.120 ,1,1,0.,24.0,0.,24.0,0.,24.0,0.,24.0
1979-08-02 09:59:21.120 ,2,1,0.,24.0,0.,24.0,1.,24.0,0.,24.0
1979-08-02 09:59:45.120 ,6,1,0.,24.0,0.,24.0,2.,24.0,0.,24.0
1979-08-02 10:00:09.120 ,5,1,14.,24.0,0.,24.0,1.,24.0,0.,24.0
1979-08-02 10:00:33.120 ,1,1,0.,24.0,0.,24.0,0.,24.0,0.,24.0
1979-08-02 10:00:57.120 ,2,1,0.,24.0,0.,24.0,0.,24.0,0.,24.0
1979-08-02 10:01:21.120 ,6,1,0.,24.0,0.,24.0,0.,24.0,0.,24.0
1979-08-02 10:01:45.120 ,5,1,10.,24.0,0.,24.0,1.,24.0,0.,24.0
1979-08-02 10:02:09.120 ,1,1,0.,24.0,0.,24.0,0.,24.0,0.,24.0
1979-08-02 10:02:33.120 ,2,1,0.,24.0,0.,24.0,0.,24.0,0.,24.0
1979-08-02 10:02:57.120 ,6,1,0.,24.0,0.,24.0,0.,24.0,0.,24.0
1979-08-02 10:03:21.120 ,5,1,12.,24.0,0.,24.0,0.,24.0,0.,24.0
1979-08-02 10:03:45.120 ,1,1,0.,24.0,1.,24.0,0.,24.0,0.,24.0
1979-08-02 10:04:09.120 ,2,1,1.,24.0,0.,24.0,1.,24.0,0.,24.0
1979-08-02 10:04:33.120 ,6,1,0.,24.0,0.,24.0,0.,24.0,0.,24.0
1979-08-02 10:04:57.120 ,5,1,13.,24.0,0.,24.0,0.,24.0,0.,24.0
1979-08-02 10:05:21.120 ,1,1,0.,24.0,0.,24.0,0.,24.0,0.,24.0
1979-08-02 10:05:45.120 ,0,0,0.,24.0,0.,24.0,1.,24.0,0.,24.0
1979-08-02 10:06:09.120 ,0,0,0.,24.0,0.,24.0,0.,24.0,0.,24.0
1979-08-02 10:06:33.120 ,5,1,15.,24.0,0.,24.0,0.,24.0,0.,24.0
1979-08-02 10:06:57.120 ,5,0,0.,24.0,0.,24.0,0.,24.0,0.,24.0
1979-08-02 10:07:21.120 ,4,1,0.,24.0,0.,24.0,0.,24.0,0.,24.0
1979-08-02 10:07:45.120 ,4,0,0.,24.0,0.,24.0,1.,24.0,0.,24.0
1979-08-02 10:08:09.120 ,3,1,0.,24.0,0.,24.0,0.,24.0,0.,24.0
1979-08-02 10:08:33.120 ,3,0,0.,24.0,0.,24.0,1.,24.0,0.,24.0
1979-08-02 10:08:57.120 ,2,1,0.,24.0,0.,24.0,1.,24.0,0.,24.0
1979-08-02 10:09:21.120 ,2,0,0.,24.0,0.,24.0,0.,24.0,0.,24.0
1979-08-02 10:09:45.120 ,1,1,0.,24.0,0.,24.0,0.,24.0,0.,24.0
1979-08-02 10:10:09.120 ,1,0,0.,24.0,0.,24.0,0.,24.0,0.,24.0
1979-08-02 10:10:33.120 ,0,1,0.,24.0,0.,24.0,1.,24.0,0.,24.0
1979-08-02 10:10:57.120 ,0,0,0.,24.0,0.,24.0,0.,24.0,0.,24.0
1979-08-02 10:11:21.120 ,0,1,0.,24.0,0.,24.0,0.,24.0,0.,24.0
1979-08-02 10:11:45.120 ,0,0,0.,24.0,0.,24.0,0.,24.0,0.,24.0
1979-08-02 10:12:09.120 ,1,1,0.,24.0,0.,24.0,1.,24.0,0.,24.0
1979-08-02 10:12:33.120 ,1,0,0.,24.0,0.,24.0,1.,24.0,0.,24.0
1979-08-02 10:12:57.120 ,2,1,0.,24.0,0.,24.0,0.,24.0,0.,24.0
1979-08-02 10:13:21.120 ,2,0,0.,24.0,0.,24.0,0.,24.0,0.,24.0
1979-08-02 10:13:45.120 ,3,1,0.,24.0,0.,24.0,0.,24.0,0.,24.0
1979-08-02 10:14:09.120 ,3,0,0.,24.0,0.,24.0,1.,24.0,0.,24.0
1979-08-02 10:14:33.120 ,4,1,0.,24.0,0.,24.0,0.,24.0,0.,24.0
1979-08-02 10:14:57.120 ,4,0,0.,24.0,0.,24.0,3.,24.0,0.,24.0
1979-08-02 10:15:21.120 ,5,1,0.,24.0,0.,24.0,0.,24.0,0.,24.0
1979-08-02 10:15:45.120 ,5,0,0.,24.0,0.,24.0,4.,24.0,0.,24.0
1979-08-02 10:16:09.120 ,6,1,0.,24.0,0.,24.0,0.,24.0,0.,24.0
1979-08-02 10:16:33.120 ,6,0,0.,24.0,0.,24.0,0.,24.0,0.,24.0
1979-08-02 10:16:57.120 ,7,1,8.,24.0,0.,24.0,0.,24.0,0.,24.0
1979-08-02 10:17:21.120 ,7,0,47.,24.0,0.,24.0,0.,24.0,0.,24.0
1979-08-02 10:17:45.120 ,7,1,34.,24.0,0.,24.0,0.,24.0,0.,24.0
1979-08-02 10:18:09.120 ,7,0,31.,24.0,0.,24.0,0.,24.0,0.,24.0
1979-08-02 10:18:33.120 ,6,1,17.,24.0,0.,24.0,0.,24.0,0.,24.0
1979-08-02 10:18:57.120 ,6,0,0.,24.0,0.,24.0,1.,24.0,0.,24.0
1979-08-02 10:19:21.120 ,5,1,0.,24.0,0.,24.0,1.,24.0,0.,24.0
1979-08-02 10:19:45.120 ,5,0,0.,24.0,0.,24.0,1.,24.0,0.,24.0
1979-08-02 10:20:09.120 ,4,1,0.,24.0,0.,24.0,0.,24.0,0.,24.0
1979-08-02 10:20:33.120 ,4,0,0.,24.0,0.,24.0,1.,24.0,0.,24.0
1979-08-02 10:20:57.120 ,3,1,1.,24.0,0.,24.0,2.,24.0,0.,24.0
1979-08-02 10:21:21.120 ,3,0,0.,24.0,0.,24.0,1.,24.0,0.,24.0
1979-08-02 10:21:45.120 ,2,1,0.,24.0,0.,24.0,0.,24.0,0.,24.0
1979-08-02 10:22:09.120 ,2,0,0.,24.0,0.,24.0,0.,24.0,0.,24.0
1979-08-02 10:22:33.120 ,1,1,0.,24.0,0.,24.0,1.,24.0,0.,24.0
1979-08-02 10:22:57.120 ,1,0,0.,24.0,0.,24.0,1.,24.0,0.,24.0
1979-08-02 10:23:21.120 ,0,1,0.,24.0,0.,24.0,0.,24.0,0.,24.0
1979-08-02 10:23:45.120 ,0,0,0.,24.0,0.,24.0,1.,24.0,0.,24.0
1979-08-02 10:24:09.120 ,0,1,0.,24.0,0.,24.0,0.,24.0,0.,24.0
1979-08-02 10:24:33.120 ,0,0,0.,24.0,0.,24.0,0.,24.0,0.,24.0
1979-08-02 10:24:57.120 ,1,1,0.,24.0,0.,24.0,1.,24.0,0.,24.0
1979-08-02 10:25:21.120 ,1,0,0.,24.0,0.,24.0,0.,24.0,0.,24.0
1979-08-02 10:25:45.120 ,2,1,0.,24.0,0.,24.0,0.,24.0,0.,24.0
1979-08-02 10:26:09.120 ,2,0,0.,24.0,0.,24.0,1.,24.0,0.,24.0
1979-08-02 10:26:33.120 ,3,1,0.,24.0,1.,24.0,2.,24.0,0.,24.0
1979-08-02 10:26:57.120 ,3,0,1.,24.0,0.,24.0,1.,24.0,0.,24.0
1979-08-02 10:27:21.120 ,4,1,0.,24.0,0.,24.0,0.,24.0,0.,24.0
1979-08-02 10:27:45.120 ,4,0,0.,24.0,0.,24.0,0.,24.0,0.,24.0
1979-08-02 10:28:09.120 ,5,1,0.,24.0,0.,24.0,0.,24.0,0.,24.0
1979-08-02 10:28:33.120 ,5,0,0.,24.0,0.,24.0,2.,24.0,0.,24.0
1979-08-02 10:28:57.120 ,6,1,0.,24.0,0.,24.0,0.,24.0,0.,24.0
1979-08-02 10:29:21.120 ,6,0,0.,24.0,0.,24.0,0.,24.0,0.,24.0
1979-08-02 10:29:45.120 ,7,1,4.,24.0,0.,24.0,1.,24.0,0.,24.0
1979-08-02 10:30:09.120 ,7,0,38.,24.0,0.,24.0,0.,24.0,0.,24.0
1979-08-02 10:30:33.120 ,7,1,31.,24.0,0.,24.0,1.,24.0,0.,24.0
1979-08-02 10:30:57.120 ,7,0,25.,24.0,0.,24.0,1.,24.0,0.,24.0
1979-08-02 10:31:21.120 ,6,1,20.,24.0,0.,24.0,0.,24.0,0.,24.0
1979-08-02 10:31:45.120 ,6,0,0.,24.0,0.,24.0,1.,24.0,0.,24.0
1979-08-02 10:32:09.120 ,5,1,0.,24.0,0.,24.0,1.,24.0,0.,24.0
1979-08-02 10:32:33.120 ,5,0,0.,24.0,0.,24.0,2.,24.0,0.,24.0
1979-08-02 10:32:57.120 ,4,1,0.,24.0,0.,24.0,1.,24.0,0.,24.0
1979-08-02 10:33:21.120 ,4,0,0.,24.0,0.,24.0,1.,24.0,0.,24.0
1979-08-02 10:33:45.120 ,3,1,0.,24.0,0.,24.0,1.,24.0,0.,24.0
1979-08-02 10:34:09.120 ,3,0,0.,24.0,0.,24.0,0.,24.0,0.,24.0
1979-08-02 10:34:33.120 ,2,1,0.,24.0,0.,24.0,0.,24.0,0.,24.0
1979-08-02 10:34:57.120 ,2,0,0.,24.0,0.,24.0,1.,24.0,0.,24.0
1979-08-02 10:35:21.120 ,1,1,0.,24.0,0.,24.0,1.,24.0,0.,24.0
1979-08-02 10:35:45.120 ,1,0,1.,24.0,0.,24.0,0.,24.0,0.,24.0
1979-08-02 10:36:09.120 ,0,1,0.,24.0,0.,24.0,0.,24.0,0.,24.0
1979-08-02 10:36:33.120 ,0,0,0.,24.0,0.,24.0,0.,24.0,0.,24.0
1979-08-02 10:36:57.120 ,0,1,0.,24.0,0.,24.0,1.,24.0,0.,24.0
1979-08-02 10:37:21.120 ,0,0,0.,24.0,0.,24.0,2.,24.0,0.,24.0
1979-08-02 10:37:45.120 ,1,1,0.,24.0,0.,24.0,1.,24.0,0.,24.0
1979-08-02 10:38:09.120 ,1,0,0.,24.0,0.,24.0,2.,24.0,0.,24.0
1979-08-02 10:38:33.120 ,2,1,0.,24.0,0.,24.0,0.,24.0,0.,24.0
1979-08-02 10:38:57.120 ,2,0,0.,24.0,0.,24.0,0.,24.0,0.,24.0
1979-08-02 10:39:21.120 ,3,1,0.,24.0,0.,24.0,1.,24.0,0.,24.0
1979-08-02 10:39:45.120 ,3,0,0.,24.0,0.,24.0,0.,24.0,0.,24.0
1979-08-02 10:40:09.120 ,4,1,0.,24.0,0.,24.0,1.,24.0,0.,24.0
1979-08-02 10:40:33.120 ,4,0,0.,24.0,0.,24.0,0.,24.0,0.,24.0
1979-08-02 10:40:57.120 ,5,1,0.,24.0,0.,24.0,0.,24.0,0.,24.0
1979-08-02 10:41:21.120 ,5,0,0.,24.0,0.,24.0,3.,24.0,0.,24.0
1979-08-02 10:41:45.120 ,6,1,0.,24.0,0.,24.0,1.,24.0,0.,24.0
1979-08-02 10:42:09.120 ,6,0,0.,24.0,0.,24.0,1.,24.0,0.,24.0
1979-08-02 10:42:33.120 ,7,0,7.,24.0,0.,24.0,1.,24.0,0.,24.0
1979-08-02 10:42:57.120 ,7,0,34.,24.0,0.,24.0,3.,24.0,0.,24.0
1979-08-02 10:43:21.120 ,5,1,13.,24.0,0.,24.0,3.,24.0,0.,24.0
1979-08-02 10:43:45.120 ,1,1,0.,24.0,1.,24.0,1.,24.0,0.,24.0
1979-08-02 10:44:09.120 ,2,1,0.,24.0,0.,24.0,1.,24.0,0.,24.0
1979-08-02 10:44:33.120 ,6,1,0.,24.0,0.,24.0,2.,24.0,0.,24.0
1979-08-02 10:44:57.120 ,5,1,16.,24.0,0.,24.0,0.,24.0,0.,24.0
1979-08-02 10:45:21.120 ,1,1,0.,24.0,0.,24.0,0.,24.0,0.,24.0
1979-08-02 10:45:45.120 ,2,1,0.,24.0,0.,24.0,2.,24.0,0.,24.0
1979-08-02 10:46:09.120 ,6,1,0.,24.0,0.,24.0,0.,24.0,0.,24.0
1979-08-02 10:46:33.120 ,5,1,11.,24.0,0.,24.0,3.,24.0,0.,24.0
1979-08-02 10:46:57.120 ,0,0,0.,24.0,0.,24.0,1.,24.0,0.,24.0
1979-08-02 10:47:21.120 ,0,0,0.,24.0,0.,24.0,1.,24.0,0.,24.0
1979-08-02 10:47:45.120 ,7,1,,0,,0,,0,,0
1979-08-02 10:48:09.120 ,5,1,8.,24.0,0.,24.0,0.,24.0,0.,24.0
1979-08-02 10:48:33.120 ,1,1,0.,24.0,0.,24.0,2.,24.0,0.,24.0
1979-08-02 10:48:57.120 ,2,1,0.,24.0,0.,24.0,0.,24.0,0.,24.0
1979-08-02 10:49:21.120 ,6,1,0.,24.0,0.,24.0,2.,24.0,0.,24.0
1979-08-02 10:49:45.120 ,5,1,16.,24.0,0.,24.0,0.,24.0,0.,24.0
1979-08-02 10:50:09.120 ,1,1,0.,24.0,0.,24.0,0.,24.0,0.,24.0
1979-08-02 10:50:33.120 ,2,1,0.,24.0,0.,24.0,0.,24.0,0.,24.0
1979-08-02 10:50:57.120 ,6,1,0.,24.0,0.,24.0,0.,24.0,0.,24.0
1979-08-02 10:51:21.120 ,5,1,12.,24.0,0.,24.0,1.,24.0,0.,24.0
1979-08-02 10:51:45.120 ,1,1,0.,24.0,0.,24.0,1.,24.0,0.,24.0
1979-08-02 10:52:09.120 ,2,1,0.,24.0,0.,24.0,1.,24.0,0.,24.0
1979-08-02 10:52:33.120 ,6,1,0.,24.0,0.,24.0,1.,24.0,0.,24.0
1979-08-02 10:52:57.120 ,5,1,12.,24.0,0.,24.0,2.,24.0,0.,24.0
1979-08-02 10:53:21.120 ,1,1,0.,24.0,0.,24.0,0.,24.0,0.,24.0
1979-08-02 10:53:45.120 ,0,0,0.,24.0,0.,24.0,0.,24.0,0.,24.0
1979-08-02 10:54:09.120 ,0,0,0.,24.0,0.,24.0,0.,24.0,0.,24.0
1979-08-02 10:54:33.120 ,5,1,15.,24.0,0.,24.0,0.,24.0,0.,24.0
1979-08-02 10:54:57.120 ,5,0,0.,24.0,0.,24.0,1.,24.0,0.,24.0
1979-08-02 10:55:21.120 ,4,1,0.,24.0,0.,24.0,0.,24.0,0.,24.0
1979-08-02 10:55:45.120 ,4,0,0.,24.0,0.,24.0,1.,24.0,0.,24.0
1979-08-02 10:56:09.120 ,3,1,0.,24.0,0.,24.0,1.,24.0,0.,24.0
1979-08-02 10:56:33.120 ,3,0,0.,24.0,0.,24.0,1.,24.0,0.,24.0
1979-08-02 10:56:57.120 ,2,1,0.,24.0,0.,24.0,0.,24.0,0.,24.0
1979-08-02 10:57:21.120 ,2,0,1.,24.0,0.,24.0,2.,24.0,0.,24.0
1979-08-02 10:57:45.120 ,1,1,0.,24.0,0.,24.0,1.,24.0,0.,24.0
1979-08-02 10:58:09.120 ,1,0,0.,24.0,0.,24.0,0.,24.0,0.,24.0
1979-08-02 10:58:33.120 ,0,1,0.,24.0,0.,24.0,1.,24.0,0.,24.0
1979-08-02 10:58:57.120 ,0,0,0.,24.0,0.,24.0,0.,24.0,0.,24.0
1979-08-02 10:59:21.120 ,0,1,0.,24.0,0.,24.0,1.,24.0,0.,24.0
1979-08-02 10:59:45.120 ,0,0,0.,24.0,0.,24.0,0.,24.0,0.,24.0
1979-08-02 11:00:09.120 ,1,1,0.,24.0,1.,24.0,1.,24.0,0.,24.0
1979-08-02 11:00:33.120 ,1,0,0.,24.0,0.,24.0,0.,24.0,0.,24.0
1979-08-02 11:00:57.120 ,2,1,0.,24.0,0.,24.0,0.,24.0,0.,24.0
1979-08-02 11:01:21.120 ,2,0,1.,24.0,0.,24.0,0.,24.0,0.,24.0
1979-08-02 11:01:45.120 ,3,1,1.,24.0,0.,24.0,0.,24.0,0.,24.0
1979-08-02 11:02:09.120 ,3,0,1.,24.0,0.,24.0,0.,24.0,0.,24.0
1979-08-02 11:02:33.120 ,4,1,0.,24.0,0.,24.0,0.,24.0,0.,24.0
1979-08-02 11:02:57.120 ,4,0,0.,24.0,0.,24.0,0.,24.0,0.,24.0
1979-08-02 11:03:21.120 ,0,0,0.,24.0,0.,24.0,1.,24.0,0.,24.0
1979-08-02 11:03:45.120 ,0,0,,0,,0,,0,,0
1979-08-02 11:04:45.720 ,0,0,,0,,0,,0,,0
1979-08-02 11:04:57.120 ,7,1,7.,24.0,0.,24.0,0.,24.0,0.,24.0
1979-08-02 11:05:21.120 ,7,0,26.,24.0,0.,24.0,2.,24.0,0.,24.0
1979-08-02 11:05:45.120 ,7,1,34.,24.0,0.,24.0,0.,24.0,0.,24.0
1979-08-02 11:06:09.120 ,7,0,22.,24.0,0.,24.0,0.,24.0,0.,24.0
1979-08-02 11:06:33.120 ,6,1,18.,24.0,0.,24.0,1.,24.0,0.,24.0
1979-08-02 11:06:57.120 ,6,0,0.,24.0,0.,24.0,1.,24.0,0.,24.0
1979-08-02 11:07:21.120 ,5,1,0.,24.0,0.,24.0,0.,24.0,0.,24.0
1979-08-02 11:07:45.120 ,5,0,0.,24.0,0.,24.0,2.,24.0,0.,24.0
1979-08-02 11:08:09.120 ,4,1,0.,24.0,0.,24.0,1.,24.0,0.,24.0
1979-08-02 11:08:33.120 ,4,0,0.,24.0,0.,24.0,0.,24.0,0.,24.0
1979-08-02 11:08:57.120 ,3,1,0.,24.0,0.,24.0,0.,24.0,0.,24.0
1979-08-02 11:09:21.120 ,3,0,0.,24.0,0.,24.0,0.,24.0,0.,24.0
1979-08-02 11:09:45.120 ,2,1,0.,24.0,0.,24.0,1.,24.0,0.,24.0
1979-08-02 11:10:09.120 ,2,0,0.,24.0,0.,24.0,0.,24.0,0.,24.0
1979-08-02 11:10:33.120 ,1,1,0.,24.0,0.,24.0,0.,24.0,0.,24.0
1979-08-02 11:10:57.120 ,1,0,0.,24.0,0.,24.0,1.,24.0,0.,24.0
1979-08-02 11:11:21.120 ,0,1,0.,24.0,0.,24.0,2.,24.0,0.,24.0
1979-08-02 11:11:45.120 ,0,0,0.,24.0,0.,24.0,0.,24.0,0.,24.0
1979-08-02 11:12:09.120 ,0,1,0.,24.0,0.,24.0,0.,24.0,0.,24.0
1979-08-02 11:12:33.120 ,0,0,0.,24.0,0.,24.0,0.,24.0,0.,24.0
1979-08-02 11:12:57.120 ,1,1,0.,24.0,0.,24.0,1.,24.0,0.,24.0
1979-08-02 11:13:21.120 ,1,0,0.,24.0,0.,24.0,0.,24.0,0.,24.0
1979-08-02 11:13:45.120 ,2,1,1.,24.0,0.,24.0,0.,24.0,0.,24.0
1979-08-02 11:14:09.120 ,2,0,0.,24.0,0.,24.0,0.,24.0,0.,24.0
1979-08-02 11:14:33.120 ,3,1,0.,24.0,0.,24.0,1.,24.0,0.,24.0
1979-08-02 11:14:57.120 ,3,0,1.,24.0,0.,24.0,0.,24.0,0.,24.0
1979-08-02 11:15:21.120 ,4,1,0.,24.0,1.,24.0,0.,24.0,0.,24.0
1979-08-02 11:15:45.120 ,4,0,0.,24.0,0.,24.0,1.,24.0,0.,24.0
1979-08-02 11:16:09.120 ,5,1,0.,24.0,0.,24.0,0.,24.0,0.,24.0
1979-08-02 11:16:33.120 ,5,0,1.,24.0,0.,24.0,0.,24.0,0.,24.0
1979-08-02 11:16:57.120 ,6,1,0.,24.0,0.,24.0,2.,24.0,0.,24.0
1979-08-02 11:17:21.120 ,6,0,0.,24.0,0.,24.0,1.,24.0,0.,24.0
1979-08-02 11:17:45.120 ,7,1,8.,24.0,0.,24.0,0.,24.0,0.,24.0
1979-08-02 11:18:09.120 ,7,0,28.,24.0,0.,24.0,0.,24.0,0.,24.0
1979-08-02 11:18:33.120 ,7,1,44.,24.0,0.,24.0,0.,24.0,0.,24.0
1979-08-02 11:18:57.120 ,7,0,22.,24.0,0.,24.0,1.,24.0,0.,24.0
1979-08-02 11:19:21.120 ,6,1,17.,24.0,0.,24.0,0.,24.0,0.,24.0
1979-08-02 11:19:45.120 ,6,0,0.,24.0,0.,24.0,0.,24.0,0.,24.0
1979-08-02 11:20:09.120 ,5,1,0.,24.0,0.,24.0,1.,24.0,0.,24.0
1979-08-02 11:20:33.120 ,5,0,0.,24.0,0.,24.0,1.,24.0,0.,24.0
1979-08-02 11:20:57.120 ,4,1,0.,24.0,0.,24.0,1.,24.0,0.,24.0
1979-08-02 11:21:21.120 ,4,0,0.,24.0,0.,24.0,1.,24.0,0.,24.0
1979-08-02 11:21:45.120 ,3,1,0.,24.0,0.,24.0,2.,24.0,0.,24.0
1979-08-02 11:22:09.120 ,3,0,0.,24.0,0.,24.0,0.,24.0,0.,24.0
1979-08-02 11:22:33.120 ,2,1,0.,24.0,0.,24.0,1.,24.0,0.,24.0
1979-08-02 11:22:57.120 ,2,0,0.,24.0,0.,24.0,0.,24.0,0.,24.0
1979-08-02 11:23:21.120 ,1,1,0.,24.0,0.,24.0,1.,24.0,0.,24.0
1979-08-02 11:23:45.120 ,1,0,0.,24.0,0.,24.0,0.,24.0,0.,24.0
1979-08-02 11:24:09.120 ,0,1,0.,24.0,0.,24.0,0.,24.0,0.,24.0
1979-08-02 11:24:33.120 ,0,0,1.,24.0,0.,24.0,0.,24.0,0.,24.0
1979-08-02 11:24:57.120 ,0,1,0.,24.0,0.,24.0,2.,24.0,0.,24.0
1979-08-02 11:25:21.120 ,0,0,0.,24.0,0.,24.0,0.,24.0,0.,24.0
1979-08-02 11:25:45.120 ,1,1,0.,24.0,0.,24.0,1.,24.0,0.,24.0
1979-08-02 11:26:09.120 ,1,0,0.,24.0,0.,24.0,0.,24.0,0.,24.0
1979-08-02 11:26:33.120 ,2,1,0.,24.0,0.,24.0,0.,24.0,0.,24.0
1979-08-02 11:26:57.120 ,2,0,0.,24.0,0.,24.0,0.,24.0,0.,24.0
1979-08-02 11:27:21.120 ,3,1,0.,24.0,0.,24.0,0.,24.0,0.,24.0
1979-08-02 11:27:45.120 ,3,0,0.,24.0,0.,24.0,0.,24.0,0.,24.0
1979-08-02 11:28:09.120 ,4,1,0.,24.0,0.,24.0,0.,24.0,0.,24.0
1979-08-02 11:28:33.120 ,4,0,0.,24.0,0.,24.0,2.,24.0,0.,24.0
1979-08-02 11:28:57.120 ,5,1,0.,24.0,0.,24.0,1.,24.0,0.,24.0
1979-08-02 11:29:21.120 ,5,0,0.,24.0,0.,24.0,0.,24.0,0.,24.0
1979-08-02 11:29:45.120 ,6,1,0.,24.0,0.,24.0,1.,24.0,0.,24.0
1979-08-02 11:30:09.120 ,6,0,0.,24.0,0.,24.0,0.,24.0,0.,24.0
1979-08-02 11:30:33.120 ,7,0,7.,24.0,0.,24.0,1.,24.0,0.,24.0
1979-08-02 11:30:57.120 ,7,0,28.,24.0,0.,24.0,0.,24.0,0.,24.0
1979-08-02 11:31:21.120 ,5,1,15.,24.0,0.,24.0,2.,24.0,0.,24.0
1979-08-02 11:31:45.120 ,1,1,0.,24.0,0.,24.0,2.,24.0,0.,24.0
1979-08-02 11:32:09.120 ,2,1,0.,24.0,0.,24.0,1.,24.0,0.,24.0
1979-08-02 11:32:33.120 ,6,1,0.,24.0,0.,24.0,0.,24.0,0.,24.0
1979-08-02 11:32:57.120 ,5,1,19.,24.0,0.,24.0,1.,24.0,0.,24.0
1979-08-02 11:33:21.120 ,1,1,1.,24.0,0.,24.0,0.,24.0,0.,24.0
1979-08-02 11:33:45.120 ,2,1,0.,24.0,0.,24.0,1.,24.0,0.,24.0
1979-08-02 11:34:09.120 ,6,1,0.,24.0,0.,24.0,0.,24.0,0.,24.0
1979-08-02 11:34:33.120 ,5,1,16.,24.0,0.,24.0,4.,24.0,0.,24.0
1979-08-02 11:34:57.120 ,1,1,0.,24.0,0.,24.0,0.,24.0,0.,24.0